Weather History for Dallas Addison, TX

Change the Weather History Date:

Friday, June 6, 2014

  Actual Average Record
Temperature  
Mean Temperature 82 °F -  
Max Temperature 93 °F 86 °F 98 °F (2006)
Min Temperature 75 °F 69 °F 57 °F (1998)
Cooling Degree Days 17    
Growing Degree Days 32 (Base 50)    
Moisture  
Dew Point 69 °F    
Average Humidity 65    
Maximum Humidity 83    
Minimum Humidity 43    
Precipitation  
Precipitation 0.00 in - - ()
Sea Level Pressure  
Sea Level Pressure 29.87 in    
Wind  
Wind Speed 11 mph (South)    
Max Wind Speed 17 mph    
Max Gust Speed 25 mph    
Visibility 11 miles    
Events      
Averages and records for this station are not official NWS values.
T = Trace of Precipitation, MM = Missing Value Source: NWS Daily Summary

Daily Weather History Graph

Daily Weather History Graph

Search for Another Location

Airport:

Trip Planner

Search our weather history database for the weather conditions in past years. The results will help you decide how hot, cold, wet, or windy it might be!

Date:

Astronomy

Jun. 06, 2014 Rise Set
Actual Time 6:18 AM CDT 8:33 PM CDT
Civil Twilight 5:50 AM CDT 9:02 PM CDT
Nautical Twilight 5:15 AM CDT 9:36 PM CDT
Astronomical Twilight 4:37 AM CDT 10:14 PM CDT
Moon 2:13 PM CDT (6/6) 1:50 AM CDT (6/6)
Length of Visible Light 15h 11m
Length of Day
14h 15m
First Quarter, 58% of the Moon is Illuminated
Jun 6
First Quarter
Jun 12
Full
Jun 19
Last Quarter
Jun 27
New
Jul 5
First Quarter

Hourly Weather History & Observations

Time (CDT) Temp. Heat Index Dew Point Humidity Pressure Visibility Wind Dir Wind Speed Gust Speed Precip Events Conditions
12:15 AM 82.6 °F 87.1 °F 70.9 °F 68% 29.86 in 10.0 mi South 9.2 mph - N/A   Clear
12:35 AM 82.6 °F 87.1 °F 70.9 °F 68% 29.86 in 10.0 mi South 10.4 mph - N/A   Clear
12:55 AM 82.0 °F 86.1 °F 70.7 °F 68% 29.86 in 10.0 mi South 12.7 mph - N/A   Clear
1:15 AM 81.7 °F 85.6 °F 70.7 °F 69% 29.85 in 10.0 mi South 8.1 mph 16.1 mph N/A   Clear
1:35 AM 81.3 °F 85.2 °F 70.7 °F 70% 29.84 in 10.0 mi South 10.4 mph - N/A   Clear
1:55 AM 81.0 °F 84.6 °F 70.3 °F 70% 29.84 in 10.0 mi South 11.5 mph 17.3 mph N/A   Clear
2:15 AM 80.6 °F 83.9 °F 69.8 °F 70% 29.84 in 10.0 mi South 12.7 mph 18.4 mph N/A   Clear
2:35 AM 80.2 °F 83.3 °F 69.8 °F 70% 29.84 in 10.0 mi South 12.7 mph 18.4 mph N/A   Clear
2:55 AM 79.9 °F - 69.8 °F 71% 29.84 in 10.0 mi South 10.4 mph 16.1 mph N/A   Clear
3:15 AM 79.7 °F - 69.8 °F 72% 29.84 in 10.0 mi SSW 13.8 mph 19.6 mph N/A   Clear
3:35 AM 79.2 °F - 69.4 °F 72% 29.85 in 10.0 mi South 11.5 mph - N/A   Clear
3:55 AM 79.0 °F - 69.3 °F 72% 29.86 in 10.0 mi South 10.4 mph - N/A   Clear
4:15 AM 78.8 °F - 69.1 °F 72% 29.87 in 10.0 mi South 5.8 mph - N/A   Clear
4:35 AM 78.3 °F - 69.1 °F 73% 29.88 in 10.0 mi South 5.8 mph - N/A   Clear
4:55 AM 77.5 °F - 69.3 °F 76% 29.88 in 10.0 mi South 5.8 mph - N/A   Clear
5:15 AM 77.0 °F - 69.3 °F 77% 29.88 in 10.0 mi South 6.9 mph - N/A   Clear
5:35 AM 76.8 °F - 69.3 °F 77% 29.89 in 10.0 mi South 8.1 mph - N/A   Clear
5:53 AM 75.2 °F - 69.8 °F 83% 29.88 in 13.0 mi SSE 9.2 mph - N/A   Scattered Clouds
6:55 AM 75.2 °F - 69.8 °F 83% 29.89 in 13.0 mi South 8.1 mph - N/A   Partly Cloudy
10:47 AM 80.6 °F 83.9 °F 69.8 °F 70% 29.96 in 10.0 mi South 11.5 mph - N/A   Scattered Clouds
11:47 AM 84.2 °F 87.3 °F 68.0 °F 58% 29.97 in 13.0 mi South 10.4 mph 17.3 mph N/A   Mostly Cloudy
12:47 PM 84.2 °F 87.3 °F 68.0 °F 58% 29.98 in 13.0 mi South 5.8 mph - N/A   Overcast
3:47 PM 89.6 °F 93.4 °F 68.0 °F 49% 29.91 in 13.0 mi SSE 13.8 mph 24.2 mph N/A   Mostly Cloudy
5:48 PM 89.6 °F 92.2 °F 66.2 °F 46% 29.87 in 13.0 mi South 10.4 mph 25.3 mph N/A   Scattered Clouds
6:47 PM 89.6 °F 91.1 °F 64.4 °F 43% 29.84 in 13.0 mi South 13.8 mph 25.3 mph N/A   Mostly Cloudy
7:47 PM 89.6 °F 91.1 °F 64.4 °F 43% 29.83 in 13.0 mi SSE 12.7 mph 23.0 mph N/A   Partly Cloudy
8:47 PM 86.0 °F 87.3 °F 64.4 °F 48% 29.81 in 13.0 mi SSE 13.8 mph - N/A   Partly Cloudy
9:47 PM 86.0 °F 88.2 °F 66.2 °F 51% 29.81 in 15.0 mi SSE 13.8 mph 21.9 mph N/A   Partly Cloudy
10:15 PM 84.4 °F 87.1 °F 67.1 °F 56% 29.86 in 10.0 mi South 12.7 mph - N/A   Clear
10:35 PM 84.0 °F 87.0 °F 67.6 °F 58% 29.85 in 10.0 mi SSE 13.8 mph 19.6 mph N/A   Clear
10:55 PM 83.5 °F 86.4 °F 68.0 °F 59% 29.86 in 10.0 mi SSE 12.7 mph 20.7 mph N/A   Clear
11:15 PM 83.5 °F 86.7 °F 68.2 °F 60% 29.86 in 10.0 mi SSE 17.3 mph 21.9 mph N/A   Clear
11:35 PM 82.9 °F 86.0 °F 68.4 °F 61% 29.87 in 10.0 mi SSE 13.8 mph - N/A   Clear
11:55 PM 82.8 °F 86.0 °F 68.5 °F 62% 29.88 in 10.0 mi SSE 12.7 mph - N/A   Clear